• Join FlightAware (Why Join?)
  • Login
  • US Flag 
12:59PM EDT


 

Airport Tracker/Info


-or-


 

Live Flight TrackerFlight Track Log ✈ UAL3776 ✈ 30-Aug-2013 ✈ KBOS - KORD

Flight Track Log - Related Links

Times and Time Zones

All times are in EDT time to prevent confusion due to time zone crossing. See the UAL3776 flight status page for this flight to view local times or setup timezone preferences in your user account.

Time Position Orientation Groundspeed Altitude Reporting Facility
EDT Latitude Longitude Course Direction KTS MPH feet Rate Location/Type
07:51PM 42.3500 -71.0167 144° Southeast 154 177 800  Level KA90
07:52PM 42.3333 -71.0000 144° Southeast 184 212 1,800 1,920 Climbing KA90
07:53PM 42.3167 -70.8833 101° East 269 310 4,500 2,280 Climbing KA90
07:54PM 42.3333 -70.8000 75° East 273 314 6,600 2,580 Climbing KA90
07:55PM 42.3833 -70.7333 45° Northeast 278 320 9,200 2,280 Climbing KA90
07:56PM 42.4644 -70.7206 North 325 374 11,700 2,220 Climbing Boston Center
07:57PM 42.5342 -70.7719 331° Northwest 281 323 14,000 2,100 Climbing Boston Center
07:58PM 42.5792 -70.8611 304° West 268 308 15,900 1,980 Climbing Boston Center
07:59PM 42.6306 -70.9669 303° West 299 344 18,000 1,920 Climbing Boston Center
08:00PM 42.6775 -71.0564 306° West 312 359 19,900 1,740 Climbing Boston Center
08:01PM 42.7244 -71.1542 303° West 318 366 21,600 1,620 Climbing Boston Center
08:02PM 42.7403 -71.2725 280° West 318 366 23,100 1,380 Climbing Boston Center
08:03PM 42.7542 -71.3967 279° West 323 372 24,400 1,200 Climbing Boston Center
08:04PM 42.7678 -71.5239 278° West 337 388 25,600 1,260 Climbing Boston Center
08:05PM 42.7792 -71.6650 276° West 342 394 27,000 1,260 Climbing Boston Center
08:06PM 42.7925 -71.8006 278° West 348 400 28,200 1,080 Climbing Boston Center
08:07PM 42.8078 -71.9336 279° West 353 406 29,200 1,140 Climbing Boston Center
08:08PM 42.8228 -72.0722 278° West 363 418 30,500 1,020 Climbing Boston Center
08:09PM 42.8358 -72.2108 277° West 369 425 31,300 900 Climbing Boston Center
08:10PM 42.8547 -72.3381 281° West 369 425 32,400 960 Climbing Boston Center
08:11PM 42.8653 -72.4769 276° West 369 425 33,300 780 Climbing Boston Center
08:12PM 42.8797 -72.6158 278° West 369 425 34,000 300 Climbing Boston Center
08:13PM 42.8856 -72.7575 273° West 369 425 34,000  Level Boston Center
08:14PM 42.9017 -72.9106 278° West 392 451 34,000  Level Boston Center
08:15PM 42.9217 -73.0950 278° West 422 486 34,000  Level Boston Center
08:16PM 42.9372 -73.2597 277° West 435 501 34,000  Level Boston Center
08:17PM 42.9464 -73.4186 275° West 445 512 34,000  Level Boston Center
08:18PM 42.9594 -73.5750 277° West 433 498 34,000  Level Boston Center
08:19PM 42.9725 -73.7228 277° West 409 471 34,000  Level Boston Center
08:20PM 42.9853 -73.8733 277° West 404 465 34,000  Level Boston Center
08:21PM 42.9981 -74.0242 277° West 404 465 34,000  Level Boston Center
08:22PM 43.0103 -74.1750 276° West 404 465 34,000  Level Boston Center
08:23PM 43.0203 -74.3314 275° West 409 471 34,000  Level Boston Center
08:24PM 43.0344 -74.4853 277° West 409 471 34,000  Level Boston Center
08:25PM 43.0481 -74.6392 277° West 409 471 34,000  Level Boston Center
08:26PM 43.0597 -74.7931 276° West 409 471 34,000  Level Boston Center
08:27PM 43.0711 -74.9469 276° West 409 471 34,000  Level Boston Center
08:28PM 43.0819 -75.1039 275° West 409 471 34,000  Level Boston Center
08:29PM 43.0931 -75.2578 276° West 409 471 34,000  Level Boston Center
08:30PM 43.1053 -75.4233 276° West 420 483 34,000  Level Boston Center
08:31PM 43.1164 -75.5578 277° West 435 501 34,000  Level Boston Center
08:32PM 43.1300 -75.7406 276° West 440 506 34,000  Level Boston Center
08:33PM 43.1417 -75.9119 275° West 452 520 34,000  Level Boston Center
08:35PM 43.1500 -76.2333 272° West 430 495 34,000  Level Toronto Center
08:36PM 43.1403 -76.4317 266° West 440 506 34,000  Level Cleveland Center
08:37PM 43.1275 -76.6003 264° West 446 513 34,000  Level Cleveland Center
08:38PM 43.1139 -76.7519 263° West 451 519 34,000  Level Cleveland Center
08:39PM 43.0964 -76.9239 262° West 451 519 34,000  Level Cleveland Center
08:40PM 43.0828 -77.0922 264° West 451 519 34,000 1,320 Level Cleveland Center
08:41PM 43.0689 -77.2522 263° West 440 506 36,700 1,920 Climbing Cleveland Center
08:42PM 43.0500 -77.3953 260° West 412 474 37,900 600 Climbing Cleveland Center
08:43PM 43.0097 -77.5308 248° West 393 452 38,000  Climbing Cleveland Center
08:44PM 42.9697 -77.6719 249° West 388 447 38,000  Level Cleveland Center
08:45PM 42.9294 -77.8128 249° West 398 458 38,000  Level Cleveland Center
08:46PM 42.8869 -77.9592 248° West 403 464 38,000  Level Cleveland Center
08:47PM 42.8442 -78.1056 248° West 408 470 38,000  Level Cleveland Center
08:48PM 42.7994 -78.2544 248° West 419 482 38,000  Level Cleveland Center
08:49PM 42.7544 -78.4031 248° West 419 482 38,000  Level Cleveland Center
08:50PM 42.7114 -78.5544 249° West 424 488 38,000  Level Cleveland Center
08:51PM 42.6658 -78.7028 247° West 429 494 38,000  Level Cleveland Center
08:52PM 42.6222 -78.8478 248° West 429 494 38,000  Level Cleveland Center
08:53PM 42.5681 -78.9819 241° Southwest 417 480 38,000  Level Cleveland Center
08:54PM 42.4925 -79.1019 230° Southwest 417 480 38,000  Level Cleveland Center
08:55PM 42.4525 -79.2578 251° West 395 455 38,000  Level Cleveland Center
08:56PM 42.4792 -79.3867 286° West 379 436 38,000  Level Cleveland Center
08:57PM 42.5097 -79.5269 287° West 384 442 38,000  Level Cleveland Center
08:58PM 42.5339 -79.6758 282° West 396 456 38,000  Level Cleveland Center
08:59PM 42.5597 -79.8250 283° West 403 464 38,000  Level Cleveland Center
09:00PM 42.5753 -79.9883 277° West 403 464 38,000  Level Cleveland Center
09:01PM 42.5947 -80.1375 280° West 403 464 38,000  Level Cleveland Center
09:02PM 42.6119 -80.2700 280° West 409 471 38,000  Level Cleveland Center
09:03PM 42.6311 -80.4222 280° West 409 471 38,000  Level Cleveland Center
09:04PM 42.6458 -80.5633 278° West 404 465 38,000  Level Cleveland Center
09:05PM 42.6603 -80.7103 278° West 398 458 38,000  Level Cleveland Center
09:06PM 42.6619 -80.8569 271° West 393 452 38,000  Level Cleveland Center
09:07PM 42.6636 -81.0011 271° West 387 445 38,000  Level Cleveland Center
09:08PM 42.6653 -81.1450 271° West 381 438 38,000  Level Cleveland Center
09:09PM 42.6644 -81.2892 270° West 388 447 38,000  Level Cleveland Center
09:10PM 42.6653 -81.4472 270° West 383 441 38,000  Level Cleveland Center
09:11PM 42.6642 -81.5997 269° West 396 456 38,000  Level Cleveland Center
09:12PM 42.6586 -81.7492 267° West 396 456 38,000  Level Cleveland Center
09:13PM 42.6008 -81.8836 240° Southwest 402 463 38,000  Level Cleveland Center
09:14PM 42.5408 -82.0203 239° Southwest 408 470 38,000  Level Cleveland Center
09:15PM 42.4847 -82.1569 241° Southwest 421 484 38,000  Level Cleveland Center
09:16PM 42.4267 -82.2933 240° Southwest 421 484 38,000  Level Cleveland Center
09:17PM 42.3683 -82.4294 240° Southwest 421 484 38,000  Level Cleveland Center
09:18PM 42.3119 -82.5600 240° Southwest 416 479 38,000  Level Cleveland Center
09:19PM 42.2656 -82.6958 245° Southwest 410 472 38,000  Level Cleveland Center
09:20PM 42.2692 -82.8419 272° West 385 443 38,000  Level Cleveland Center
09:21PM 42.2831 -82.9856 277° West 385 443 38,000  Level Cleveland Center
09:22PM 42.2967 -83.1264 277° West 385 443 38,000  Level Cleveland Center
09:23PM 42.3061 -83.2617 275° West 401 461 38,000  Level Cleveland Center
09:24PM 42.3194 -83.4028 277° West 401 461 38,000 -240 Level Cleveland Center
09:25PM 42.3325 -83.5436 277° West 388 447 37,600 -720 Descending Cleveland Center
09:26PM 42.3475 -83.6878 278° West 388 447 36,600 -1,020 Descending Cleveland Center
09:27PM 42.3564 -83.8175 275° West 382 440 35,600 -1,020 Descending Cleveland Center
09:28PM 42.3672 -83.9500 276° West 368 423 34,600 -1,020 Descending Cleveland Center
09:29PM 42.3775 -84.0942 276° West 373 429 33,600 -1,020 Descending Cleveland Center
09:30PM 42.3892 -84.2494 276° West 397 457 32,600 -900 Descending Cleveland Center
09:31PM 42.4022 -84.3775 278° West 414 476 32,000 -360 Descending Chicago Center
09:32PM 42.4139 -84.5297 276° West 409 471 32,000  Level Chicago Center
09:33PM 42.4261 -84.6906 276° West 425 489 32,000  Level Chicago Center
09:34PM 42.4383 -84.8522 276° West 431 496 32,000  Level Chicago Center
09:35PM 42.4525 -85.0364 276° West 413 475 32,000  Level Chicago Center
09:36PM 42.4639 -85.1875 276° West 405 466 32,000  Level Chicago Center
09:37PM 42.4719 -85.3253 275° West 377 434 32,000 -540 Level Chicago Center
09:38PM 42.4803 -85.4572 275° West 359 413 31,000 -1,500 Descending Chicago Center
09:39PM 42.5056 -85.5778 286° West 344 396 29,000 -1,980 Descending Chicago Center
09:40PM 42.5442 -85.6936 294° West 339 390 27,000 -1,980 Descending Chicago Center
09:41PM 42.5778 -85.8164 290° West 344 396 25,000 -2,040 Descending Chicago Center
09:42PM 42.5814 -85.9553 272° West 366 421 22,900 -1,920 Descending Chicago Center
09:43PM 42.5778 -86.0936 268° West 367 422 21,100 -1,020 Descending Chicago Center
09:44PM 42.5747 -86.2475 269° West 343 395 20,900 -1,020 Descending Chicago Center
09:45PM 42.5703 -86.3878 268° West 366 421 19,100 -1,860 Descending Chicago Center
09:46PM 42.5661 -86.5306 268° West 376 433 17,200 -1,860 Descending Chicago Center
09:47PM 42.5608 -86.6664 267° West 364 419 15,400 -1,800 Descending Chicago Center
09:48PM 42.5436 -86.7944 260° West 356 410 13,600 -1,800 Descending Chicago Center
09:49PM 42.5117 -86.9092 249° West 334 384 11,800 -1,620 Descending Chicago Center
09:50PM 42.4817 -87.0194 250° West 320 368 10,400 -1,380 Descending Chicago Center
09:51PM 42.4536 -87.1111 247° West 273 314 9,000 -720 Descending Chicago Center
09:52PM 42.4281 -87.2069 250° West 272 313 9,000  Level Chicago Center
09:53PM 42.3569 -87.2842 219° Southwest 276 318 9,000 -660 Level Chicago Center
09:54PM 42.2931 -87.3461 216° Southwest 277 319 7,700 -1,560 Descending Chicago Center
09:55PM 42.2289 -87.4056 214° Southwest 280 322 5,900 -1,320 Descending Chicago Center
09:56PM 42.1706 -87.4642 217° Southwest 266 306 5,000 -720 Descending Chicago Center
09:57PM 42.1111 -87.5242 217° Southwest 269 310 4,500 -540 Descending Chicago Center
09:58PM 42.0678 -87.5942 230° Southwest 255 293 4,000 -720 Descending Chicago Center
09:59PM 42.0292 -87.6819 239° Southwest 267 307 3,100 -900 Descending Chicago Center
10:00PM 41.9919 -87.7669 240° Southwest 243 280 2,200 -720 Descending Chicago Center
10:01PM 41.9822 -87.8228 257° West 188 216 1,700 -660 Descending Chicago Center
10:02PM 41.9839 -87.8778 272° West 164 189 900 -840 Descending Chicago Center
10:04PM 41.9667 -87.9000 206° Southwest  Level FlightAware Approximate